Location: Campestrin
(46.4667°N, 11.7167°E)
Time: 09:33:47
(UTC+00:00)

Cosmos 2219 Rocket - Pass Details

Date: 18 April 2021
Orbit: 826 x 848 km, 71.0° (Epoch: 06 May)

Event Time Altitude Azimuth Distance (km) Brightness Sun altitude
Rises 19:07:40 0° 333° (NNW) 3,421 6.4 -10.7°
Reaches altitude 10° 19:10:07 10° 333° (NNW) 2,482 5.6 -11.1°
Maximum altitude 19:15:51 89° 249° (WSW) 855 2.2 -11.9°
Enters shadow 19:21:15 11° 156° (SSE) 2,360 4.0 -12.7°
